User: anonymous   Login
Location: Dugenta
(41.1333°N, 14.4500°E)
Time: 04:11:49
(UTC+00:00)
Language:

ERBS - Orbit

View from above orbital plane
View from above orbital plane
View from above satellite
View from above satellite

Ground track
Ground track

The orbit data is extracted from the following two-line orbital elements,

1 15354U 84108B   21125.31716733  .00004398  00000-0  77883-4 0  9992
2 15354  57.0040 114.9448 0006196 348.9427  11.1495 15.52479339 17508
Epoch (UTC): 05 May 2021 07:36:43
Eccentricity: 0.0006196
inclination: 57.0040°
perigee height: 405 km
apogee height: 414 km
right ascension of ascending node: 114.9448°
argument of perigee: 348.9427°
revolutions per day: 15.52479339
mean anomaly at epoch: 11.1495°
orbit number at epoch: 1750

The dashed part of the orbit path shows where the satellite is in the earth's shadow,  

DLR